Theta_e
296 289 283 286 287 284 285 283 280 283 287 287 287 288 292 292 290 291 291 290 290 293 297 299 303 315 321 322 323 325 326 329 329 326 325 325 326 327 326 326 326 326 327 327
291 287 289 291 291 288 284 281 280 285 289 286 283 285 289 289 290 291 292 290 290 290 293 297 297 297 313 321 322 323 325 327 328 329 328 326 327 327 328 327 327 327 327 326
289 289 293 291 289 287 285 282 282 283 287 285 284 281 285 288 289 290 291 292 290 291 291 293 295 296 297 310 319 322 324 326 328 328 326 322 323 320 325 327 326 326 326 326
289 294 291 288 286 287 282 288 287 286 283 277 281 274 280 283 284 287 290 291 292 293 292 292 292 293 296 301 312 320 323 324 326 327 326 325 325 323 323 325 326 325 325 324
286 289 289 287 288 289 285 288 287 286 281 279 277 276 279 282 282 285 288 288 289 290 291 292 294 296 296 298 302 308 310 313 320 323 325 324 323 324 321 321 321 321 321 324
288 293 292 290 292 291 291 286 285 283 280 273 277 277 276 281 283 286 288 287 289 290 291 290 293 295 295 296 298 299 303 305 307 313 318 318 319 318 316 316 316 318 318 319
287 287 290 293 288 291 288 283 271 270 268 271 277 276 279 284 286 286 287 288 289 290 292 292 292 293 294 296 297 302 301 302 304 304 306 311 314 314 314 314 314 314 314 314
281 279 288 292 289 286 287 284 275 268 270 273 279 275 280 286 289 290 291 290 290 290 292 293 293 295 298 300 301 302 301 300 302 303 301 302 306 307 308 308 310 310 311 311
280 280 289 291 293 292 288 283 286 279 270 271 277 280 285 288 288 289 290 290 289 289 290 291 293 295 297 298 298 298 297 297 297 297 297 297 298 298 298 299 300 299 300 302
285 279 287 290 292 292 290 290 281 278 268 266 275 277 279 283 284 288 289 290 292 291 290 292 295 295 294 294 295 296 296 295 295 295 295 295 294 295 295 295 295 296 298 299
287 283 282 288 285 286 287 285 286 284 278 271 270 275 282 284 286 286 288 291 290 291 290 293 293 293 293 293 292 292 292 292 291 290 290 290 290 290 290 290 291 292 294 295
287 282 278 282 286 290 290 287 287 280 273 275 277 276 285 286 287 287 287 289 289 290 292 292 292 291 290 288 287 287 288 288 287 287 286 285 285 285 285 286 287 289 289 290
286 280 275 277 282 286 284 286 288 286 283 278 275 277 287 286 285 287 287 287 286 288 290 290 288 286 285 284 284 284 284 284 283 283 283 282 282 282 282 283 284 286 286 287
289 279 275 272 277 281 281 283 287 286 280 280 281 280 283 284 284 285 286 284 283 281 281 281 280 281 281 281 280 280 280 281 281 280 280 280 280 280 281 282 282 282 282 283
285 277 277 278 280 280 275 279 281 282 282 278 277 278 282 283 283 284 282 283 279 277 277 276 277 277 277 277 277 277 278 278 279 278 278 277 279 279 280 280 280 280 280 281
285 274 278 277 279 279 275 278 279 278 279 279 278 278 284 287 285 279 278 279 276 275 275 275 275 276 275 275 275 275 275 276 277 276 275 276 277 277 278 278 278 278 278 279
280 275 268 270 278 277 271 276 279 279 280 278 273 280 283 280 280 275 275 275 275 274 274 273 272 272 274 273 274 273 274 275 275 275 275 275 275 276 276 276 276 276 276 278
277 272 276 270 274 267 275 277 281 279 281 282 280 279 279 277 273 273 273 274 274 273 273 272 271 271 272 272 273 273 273 273 273 273 273 274 274 275 275 275 275 275 276 276
284 274 268 270 266 268 274 275 276 277 276 281 280 276 275 273 273 272 272 272 272 271 272 271 271 271 271 271 272 272 271 271 271 271 272 272 273 274 273 273 273 274 275 276
283 282 275 267 266 263 273 274 277 279 271 278 277 275 274 275 274 275 270 272 271 271 271 270 271 270 270 270 272 270 269 269 268 269 270 271 271 271 270 270 271 273 274 274
276 274 274 268 266 266 274 276 278 267 272 273 275 274 274 274 273 270 270 269 270 270 270 269 268 267 267 268 270 268 267 266 267 268 268 268 268 269 269 269 270 270 271 271
274 272 270 268 266 263 274 276 275 276 273 273 272 272 273 270 269 268 268 267 267 266 267 268 266 265 266 266 266 265 264 265 265 266 266 266 267 267 268 268 268 269 269 268
269 273 269 272 271 272 272 272 271 272 272 271 271 271 270 268 266 265 264 265 264 265 265 266 265 264 263 264 264 262 262 263 263 264 264 264 265 266 266 266 266 266 267 266
272 270 271 271 271 270 269 268 269 269 268 270 270 270 268 265 265 263 263 263 262 261 260 261 261 261 261 261 262 261 261 262 260 261 262 263 263 263 264 265 265 265 264 264
270 271 269 270 268 267 266 267 267 267 267 267 266 265 265 266 265 265 263 261 260 260 259 258 259 260 259 259 258 257 259 260 260 261 261 261 262 262 262 263 263 264 266 267
269 271 271 272 272 271 268 265 267 265 265 264 264 262 263 265 265 264 263 263 263 262 262 262 261 261 261 260 259 259 259 260 259 260 260 260 260 260 261 260 261 265 267 268
Wind_Speed
3 4 10 9 5 3 5 4 5 4 2 3 7 8 14 8 4 9 9 9 9 9 9 6 8 8 8 8 10 12 12 13 9 5 5 4 7 7 5 5 6 6 6 6
2 9 4 4 4 3 2 3 3 4 3 4 4 9 13 5 8 9 11 10 10 6 7 9 9 8 10 14 12 12 13 12 11 9 7 4 5 5 7 5 6 7 8 7
7 4 8 7 5 7 5 5 3 2 4 2 5 8 7 6 6 8 10 10 7 11 11 10 10 10 7 9 12 13 13 13 12 11 4 3 3 2 3 4 6 8 10 9
7 10 1 4 6 7 5 7 6 3 2 4 2 8 6 5 7 6 12 12 16 14 10 8 9 8 10 10 8 12 13 13 12 12 9 10 9 9 6 6 6 6 9 8
7 5 12 7 6 7 6 6 7 5 3 3 2 3 9 3 5 10 12 10 10 10 10 13 14 15 9 7 8 7 7 6 6 9 11 9 9 6 3 3 6 6 5 8
5 1 6 6 5 8 3 6 7 5 3 4 7 7 5 4 7 7 6 4 8 8 9 11 8 7 7 4 4 4 7 7 7 7 7 7 7 6 4 4 4 4 3 4
5 9 2 4 6 4 3 5 3 3 2 7 1 5 7 8 9 4 9 10 9 6 7 7 7 6 6 7 4 4 4 5 5 4 3 2 4 4 4 2 3 4 3 3
7 6 12 6 6 7 13 9 6 8 6 4 2 8 7 6 7 7 8 9 10 8 4 4 4 2 5 7 7 8 9 8 8 8 8 7 7 4 3 3 2 2 2 3
6 6 2 5 6 8 6 11 5 5 2 4 5 7 9 6 8 9 10 9 9 7 6 5 7 8 8 9 9 9 10 9 10 9 8 9 8 9 7 7 6 4 5 4
1 2 4 10 4 3 8 8 4 2 3 4 3 3 5 4 8 10 14 13 14 10 8 8 8 10 10 11 10 13 11 11 9 9 9 9 9 9 8 8 9 8 7 7
3 1 1 8 7 13 5 6 5 5 6 6 1 5 4 7 6 7 7 10 13 13 10 10 10 11 11 11 11 11 11 11 11 10 10 10 9 9 10 9 9 8 8 9
6 4 4 5 1 2 12 8 13 9 4 2 3 5 2 8 6 6 6 7 8 11 11 11 11 12 13 13 12 12 11 12 10 9 10 11 10 10 10 9 9 9 9 9
1 3 3 4 3 2 2 4 5 3 2 7 5 6 4 7 9 7 8 8 10 12 13 13 14 14 12 12 13 13 12 11 10 10 11 11 11 11 10 10 9 9 8 8
5 1 5 5 2 2 3 1 4 5 6 4 12 5 8 5 7 8 8 8 10 12 13 12 12 12 11 12 12 11 11 10 9 10 10 10 9 9 8 8 8 9 8 8
3 2 2 1 1 4 3 3 1 4 3 6 1 0 5 10 3 7 6 7 9 11 12 12 11 10 10 11 11 11 10 10 9 10 10 11 9 8 8 9 9 9 8 8
1 2 3 1 3 3 2 5 4 5 4 6 5 9 8 6 5 7 8 7 8 8 9 9 10 12 12 12 10 10 9 9 9 9 9 8 9 9 10 9 9 9 9 9
3 4 3 4 6 3 5 9 10 5 6 6 5 8 5 2 5 3 4 6 6 6 7 9 9 10 10 10 10 9 8 7 7 9 11 11 10 10 10 9 9 10 10 9
4 4 0 1 3 5 7 3 4 8 5 10 2 3 3 4 4 5 2 4 5 4 5 6 6 7 9 8 7 7 9 9 10 11 11 11 10 9 9 9 9 9 8 8
7 3 3 3 2 5 7 5 7 8 9 9 10 8 5 6 4 3 5 4 6 5 5 5 6 6 6 7 7 7 8 9 10 10 10 10 10 10 10 11 10 8 8 7
11 4 3 3 4 7 8 1 1 4 6 7 9 12 11 8 3 4 8 8 7 6 5 5 5 6 6 7 6 7 8 8 9 9 9 9 9 9 9 10 10 10 8 9
7 2 11 6 3 8 9 5 3 8 9 2 6 10 11 6 2 7 10 7 6 5 5 5 6 6 6 7 6 7 8 9 8 7 7 8 8 8 8 9 7 8 8 8
5 5 3 2 4 6 7 4 9 6 2 3 4 6 6 7 8 8 8 8 6 5 5 5 5 5 5 6 5 6 7 7 7 6 6 7 8 7 7 8 7 7 7 6
2 7 7 8 8 2 4 3 3 2 3 4 5 4 7 9 5 6 5 5 5 4 4 5 4 5 4 6 7 6 6 7 7 5 6 6 6 7 7 6 7 5 6 5
3 2 3 4 6 4 4 1 3 2 3 2 4 6 6 7 9 6 6 6 5 3 3 2 3 4 3 3 6 4 4 5 4 4 4 4 5 6 6 5 5 4 4 4
4 3 5 7 2 5 6 6 6 5 6 5 4 4 6 11 9 9 7 6 5 4 3 2 2 4 1 1 1 2 3 5 5 5 6 6 5 6 5 5 5 5 5 7
6 9 6 8 6 5 4 3 7 8 6 6 7 4 3 5 10 9 8 6 5 5 4 3 2 2 1 1 1 2 5 6 5 3 3 3 4 3 4 5 6 9 11 14
Wind_Direction
177 175 204 184 199 127 160 182 198 224 255 165 225 235 253 251 243 271 262 241 246 257 257 243 239 220 219 219 206 207 193 195 175 167 177 199 216 219 221 214 214 208 208 200
128 235 205 182 198 227 94 155 229 286 350 171 284 261 262 219 245 223 247 257 238 231 256 254 236 223 216 219 204 202 205 191 190 187 191 175 185 216 221 215 222 217 216 212
217 190 183 183 180 191 202 182 190 214 350 346 339 289 251 242 233 252 247 245 256 228 230 240 241 223 215 219 209 203 200 199 193 192 146 99 92 78 174 203 219 218 216 217
248 252 360 174 205 160 211 181 179 243 98 232 30 282 280 253 252 233 254 241 246 246 241 241 237 247 217 220 215 213 201 197 196 183 185 197 202 207 196 196 211 210 203 207
206 198 199 207 198 164 215 151 181 170 169 38 236 335 274 275 268 256 254 254 250 240 234 237 231 234 236 209 208 201 183 184 181 183 199 201 213 218 176 179 196 203 201 210
221 192 195 203 189 168 146 83 55 52 84 279 187 173 256 213 209 236 273 266 261 262 261 250 228 223 234 195 192 191 185 199 177 181 197 201 212 209 185 208 203 213 211 207
159 225 227 174 137 134 163 137 41 15 5 234 213 194 273 270 264 253 276 292 286 283 296 286 256 224 214 178 159 99 106 65 77 106 101 183 217 227 227 231 212 224 226 218
184 194 201 181 181 176 186 181 156 181 194 228 156 230 252 247 281 279 284 281 294 338 324 306 246 163 107 95 88 77 78 68 61 69 63 52 46 55 55 34 346 360 345 340
177 248 157 178 153 155 172 215 164 110 66 63 214 290 294 315 32 20 13 7 349 9 24 29 44 50 63 65 64 80 77 66 57 57 56 51 47 51 49 41 45 48 33 30
231 252 188 197 152 262 185 154 183 40 149 235 266 268 250 50 45 36 21 8 357 1 25 55 53 58 57 60 61 64 66 69 64 63 58 56 49 47 48 47 38 31 26 27
196 153 146 139 207 192 154 185 187 147 163 169 159 255 249 99 100 60 359 11 11 17 32 57 55 57 58 55 51 54 52 56 50 48 50 52 45 44 46 44 34 27 28 24
200 172 232 198 86 72 219 195 206 204 231 224 130 275 177 119 93 68 32 26 32 36 44 59 59 56 52 50 45 44 47 55 50 48 51 49 45 41 45 39 29 24 29 25
258 194 143 340 311 65 207 212 218 213 100 202 155 227 203 54 36 32 37 42 28 32 53 52 52 50 47 47 47 42 37 42 45 52 50 43 39 35 32 29 26 26 24 24
17 46 174 197 161 105 150 292 201 206 228 207 225 191 182 18 10 26 33 53 41 39 36 45 47 44 48 49 48 44 38 31 35 45 49 47 39 37 31 26 25 25 17 20
286 192 140 223 158 105 151 156 20 231 189 202 140 193 300 314 342 111 66 64 53 43 39 32 32 42 37 40 41 40 38 30 30 44 44 34 27 28 26 27 22 16 14 11
170 225 114 172 113 92 157 198 186 188 220 256 250 282 202 253 108 41 58 54 54 44 49 47 37 33 35 34 35 34 28 28 27 40 43 35 31 29 24 19 20 16 11 10
143 131 103 229 158 103 319 221 194 198 200 159 186 215 166 121 99 83 43 65 66 50 45 52 44 33 30 24 28 30 25 27 34 36 33 28 25 27 22 20 22 20 8 3
159 139 196 204 148 203 233 318 239 211 265 220 224 143 95 112 103 113 78 130 110 86 56 57 59 47 27 22 31 33 28 27 33 34 31 24 19 20 16 17 19 12 2 9
202 162 110 175 205 280 308 214 172 172 258 203 222 144 122 120 133 215 147 112 110 91 91 82 64 54 35 26 24 43 42 36 31 27 24 17 9 12 11 10 7 6 358 4
204 213 131 140 148 202 239 99 294 110 296 234 137 157 153 148 174 238 148 137 117 98 86 83 77 67 47 25 30 47 43 37 28 16 16 14 9 8 14 3 1 359 3 2
181 178 207 181 208 285 241 172 147 99 238 160 143 157 157 187 174 120 123 109 106 98 99 91 76 68 46 21 40 53 37 30 10 3 9 12 13 4 12 4 6 358 4 3
168 161 178 160 132 267 155 66 162 204 98 135 132 163 171 118 126 128 131 131 124 108 83 86 91 76 52 39 52 56 44 4 357 360 12 13 8 10 7 1 360 354 360 359
250 181 181 178 208 202 244 123 59 43 157 183 152 154 137 139 143 134 128 108 96 90 80 53 68 68 42 48 41 55 17 359 355 359 9 12 11 8 360 5 2 349 355 358
273 188 171 72 280 217 223 154 180 137 150 119 113 131 135 139 146 142 139 139 124 117 112 104 97 85 11 22 66 42 15 356 334 334 3 11 13 359 359 354 347 337 340 337
204 91 165 264 305 298 227 218 170 146 129 112 77 119 143 146 156 154 146 147 148 144 130 124 129 117 254 333 66 54 14 14 346 352 7 7 354 351 343 344 325 333 321 305
184 187 178 231 208 180 228 208 153 149 163 149 133 110 100 138 151 144 143 141 142 141 141 135 115 100 233 325 329 40 31 10 333 334 346 346 327 329 332 326 312 316 322 327